CZ-6A DEB

Satellite information

Favourite Embed

Satellite Type and Status

DEBRISIN ORBIT

Key statistics

Satellite CZ-6A DEB at a glance.

Uptime

388

Days in orbit

Revolutions

≈ 14.1

Per day

Orbit

LEO

Low Earth Orbit

Inclination

88.8

Latest

Satellite identification and parameters

Extended collection of information and parameters for CZ-6A DEB.

Object identification

Identified? True

Debris? True

Object name: CZ-6A DEB

International designator: 2024-140LS

Object number (NORAD): 60967

Object ID (CCSDS): 60967

Country: PEOPLES REPUBLIC OF CHINA (PRC)

Current information (Y/N): Y

RCS size: SMALL

Orbital parameters

Period: 102.23 minutes

Inclination: 88.8219 deg

SMA: 7242.357 km

Apoapsis: 956.614 km

Periapsis: 771.829 km

RAAN: 300.5793 deg

Eccentricy: 0.0127573

Argument of periapsis: 114.286 deg

Mean anomaly: 247.1711 deg

Mean motion: 14.08584517 rev/day

Mean motion (dot): 0.00001084 rev/day2

B* drag term: 0.0005769678 1/REarth

Two-line elements (TLE)

Creation date: Aug. 29, 2025, 2:15 a.m.

Reference frame: TEME

Reference center: EARTH

Epoch: Aug. 28, 2025, 9:38 p.m. UTC

TLE line 0: 0 CZ-6A DEB

TLE line 1: 1 60967U 24140LS 25240.90166018 .00001084 00000-0 57697-3 0 9993

TLE line 2: 2 60967 88.8219 300.5793 0127573 114.2860 247.1711 14.08584517 52643

Live tracking on map

Real-time ground track for satellite CZ-6A DEB.

In-orbit conjunctions

A list of the most updated potential collisions computed for object CZ-6A DEB.

Target Orbit TCA Probability of collision Miss distance Type
CZ-6A DEB SSO 2025-05-06 11:54:55 0.0001020223 361.0 (m) DEBRIS
FENGYUN 1C DEB SSO 2025-04-08 16:36:17 0.0001220916 301.0 (m) DEBRIS
FENGYUN 1C DEB SSO 2024-11-18 17:21:01 0.0001614511 468.0 (m) DEBRIS
NOAA 16 DEB SSO 2024-11-09 11:14:32 0.0004662022 125.0 (m) DEBRIS
FENGYUN 1C DEB SSO 2024-10-03 07:59:01 0.0001346728 685.0 (m) DEBRIS

Associated space launch

18 Low Earth Orbit communication satellites with Ku, Q and V band payloads for the G60 constellation operated by Shanghai Spacecom Satellite Technology (SSST) with funding backed by the Shanghai local government. Initial constellation will consist of 1296 satellites by 2027 with long term plans to expand it to 12000 satellites.

CZ-6A DEB was lifted into orbit during the mission ‘Long March 6A | G60 Polar Group 01’, on board a Long March 6A space rocket.

The launch took place on Aug. 6, 2024, 6:42 a.m. from Launch Complex 9A.

For more information about the launch, click the button.

Launch to space Long March 6A | G60 Polar Group 01
Long March 6A | G60 Polar Group 01

Agency: N/A

Status: Launch Successful

Launch date: Aug. 6, 2024, 6:42 a.m. UTC

Rocket: Long March 6A

Launch pad: Launch Complex 9A

Location: Taiyuan Satellite Launch Center, People's Republic of China

...

Latest news about this satellite

News about space launch
Brightness of first Chinese broadband constellation satellites alarms astronomers

The first satellites of a Chinese broadband constellation are significantly brighter than those of Western systems, posing a new challenge for astronomers.

News about space launch
Chinese rocket stage breaks up into cloud of more than 700 pieces of space debris

HELSINKI — A Chinese Long March 6A rocket’s upper stage has fragmented into a cloud of over 700 pieces of space debris, adding to concerns about long-term orbital safety. China […]

News about space launch
China's Thousand Sails Megaconstellation Kicks Off with Dangerous Debris Field

China's Thousand Sails Megaconstellation Kicks Off with Dangerous Debris Field


Newsletter sign-up

Weekly statistics, charts and insights to help you stay on top of the space industry.